Home > Weather > Bendigo > Past weeks

Flag for Australia Past Weather in Bendigo, Victoria, Australia — Yesterday and Last 2 Weeks

Now
35 °F

Chilly.


Feels Like: 32 °F
Forecast: 34 / 47 °F
Wind: 3 mph from Northeast

Location: Bendigo Airport Aws

Current Time: Jul 24, 2016 at 9:15:50 AM

Latest Report: Jul 24, 2016 at 8:00 AM


Visibility: N/A

Pressure: 29.90 "Hg

Humidity: 98%

Dew Point: 34 °F

Location of BendigoLocation

Past Weather in Bendigo — Graph

°F

Bendigo Temperature Yesterday

Maximum temperature yesterday: 51 °F (at 3:00 PM)
Minimum temperature yesterday: 35 °F (at 11:00 PM)
Average temperature yesterday: 46 °F

High & Low Weather Summary for the Past Weeks

 TemperatureHumidityPressure
High62 °F (Jul 19, 11:00 AM)100% (Jul 10, 8:00 AM)30.52 "Hg (Jul 10, 8:00 AM)
Low32 °F (Jul 24, 5:00 AM)44% (Jul 23, 3:00 PM)29.44 "Hg (Jul 22, 3:00 PM)
Average48 °F85%30.07 "Hg
* Reported Jul 9 8:00 AM — Jul 24 8:00 AM, Bendigo, Weather by CustomWeather, © 2016

Note: Actual official high and low records may vary slightly from our data, if they occured in-between our weather recording intervals... More about our weather records

Advertising

Bendigo Weather History for the Previous 24 Hours

Scroll right to see more
 ConditionsComfort  
Time TempWeatherWind HumidityBarometerVisibility
8:00 AM
Sun, Jul 24
35 °FChilly.3 mph98%29.90 "HgN/A
6:00 AM32 °FLow clouds.No wind97%29.89 "Hg0 mi
5:00 AM32 °FChilly.No wind97%29.89 "HgN/A
3:00 AM32 °FPassing clouds.No wind96%29.94 "Hg6 mi
2:00 AM32 °FChilly.No wind96%29.94 "HgN/A
12:00 AM34 °FChilly.No wind94%29.94 "HgN/A
11:00 PM
Sat, Jul 23
35 °FChilly.No wind93%29.94 "HgN/A
9:00 PM41 °FQuite cool.No wind78%29.95 "HgN/A
8:00 PM44 °FQuite cool.6 mph67%29.93 "HgN/A
6:00 PM47 °FPassing clouds.7 mph57%29.89 "HgN/A
5:00 PM49 °FCool.10 mph50%29.86 "HgN/A
3:00 PM51 °FPassing clouds.14 mph44%29.83 "HgN/A
2:00 PM49 °FCool.17 mph48%29.81 "HgN/A
12:00 PM48 °FOvercast.16 mph53%29.81 "HgN/A
11:00 AM47 °FCool.17 mph55%29.80 "HgN/A
9:00 AM46 °FCool.14 mph66%29.73 "HgN/A
Weather by CustomWeather, © 2016

See weather overviewHow to use our weather pages